Location: Roland
(31.1349°N, 85.4372°W)
Time: 03:27:03
(UTC+00:00)

Vanguard 2 Rocket - Pass Details

Date: 03 December 2021
Orbit: 554 x 3324 km, 32.9° (Epoch: 16 January)

Event Time Altitude Azimuth Distance (km) Brightness Sun altitude
Exits shadow 08:59:27 14° 210° (SSW) 5,903 10.7 -43.1°
Drops below altitude 10° 09:05:03 10° 194° (SSW) 6,233 11.0 -41.9°
Sets 09:13:19 0° 174° (S) 7,004 11.5 -40.2°
